Savoy, IL

1:22 PM CDT on August 28, 2016 (GMT -0500)
Univ Of Illinois-Willard

Weather History for KCMI - October, 2012

Change the Weather History Date:

Monday, October 8, 2012

  Actual Average Record
Temperature  
Mean Temperature 43 °F 56 °F  
Max Temperature 59 °F 69 °F 91 °F (2007)
Min Temperature 27 °F 44 °F 27 °F (2000)
Degree Days  
Heating Degree Days 22 10  
Month to date heating degree days 106 68  
Since 1 July heating degree days 195 160  
Cooling Degree Days 0 1  
Month to date cooling degree days 2 9  
Year to date cooling degree days 1286 934  
Moisture  
Dew Point 30 °F    
Average Humidity 59    
Maximum Humidity 85    
Minimum Humidity 33    
Precipitation  
Precipitation 0.00 in 0.10 in 0.67 in (1999)
Month to date precipitation 1.10 0.79  
Year to date precipitation 22.27 31.35  
Sea Level Pressure  
Sea Level Pressure 30.17 in    
Wind  
Wind Speed 9 mph (South)    
Max Wind Speed 18 mph    
Max Gust Speed 22 mph    
Visibility 10 miles    
Events      
T = Trace of Precipitation, MM = Missing Value Source: NWS Daily Summary

Daily Weather History Graph

Daily Weather History Graph

Search for Another Location

Airport or City:

Trip Planner

Search our weather history database for the weather conditions in past years. The results will help you decide how hot, cold, wet, or windy it might be!

Date:

Astronomy

Oct. 08, 2012 Rise Set
Actual Time 6:56 AM CDT 6:23 PM CDT
Civil Twilight 6:29 AM CDT 6:50 PM CDT
Nautical Twilight 5:58 AM CDT 7:21 PM CDT
Astronomical Twilight 5:26 AM CDT 7:53 PM CDT
Moon No Moon Rise 2:12 PM CDT (10/8)
Length of Visible Light 12h 20m
Length of Day
11h 26m
Last Quarter, 46% of the Moon is Illuminated
Oct 8
Last Quarter
Oct 15
New
Oct 21
First Quarter
Oct 29
Full
Nov 6
Last Quarter

Hourly Weather History & Observations

Time (CDT) Temp. Windchill Dew Point Humidity Pressure Visibility Wind Dir Wind Speed Gust Speed Precip Events Conditions
12:53 AM 35.1 °F 32.2 °F 27.0 °F 72% 30.21 in 10.0 mi South 3.5 mph - N/A   Clear
1:53 AM 32.0 °F - 26.1 °F 79% 30.22 in 10.0 mi Calm Calm - N/A   Clear
2:53 AM 30.9 °F - 27.0 °F 85% 30.21 in 10.0 mi Calm Calm - N/A   Clear
3:53 AM 28.9 °F 25.2 °F 25.0 °F 85% 30.21 in 10.0 mi SSE 3.5 mph - N/A   Clear
4:53 AM 28.0 °F 22.8 °F 25.0 °F 88% 30.22 in 10.0 mi South 4.6 mph - N/A   Clear
5:53 AM 28.9 °F 25.2 °F 25.0 °F 85% 30.21 in 10.0 mi SSE 3.5 mph - N/A   Clear
6:53 AM 28.0 °F 22.8 °F 24.1 °F 85% 30.22 in 10.0 mi South 4.6 mph - N/A   Clear
7:53 AM 35.1 °F 31.0 °F 30.0 °F 82% 30.23 in 10.0 mi South 4.6 mph - N/A   Clear
8:53 AM 44.1 °F 39.5 °F 35.1 °F 71% 30.24 in 10.0 mi South 8.1 mph - N/A   Clear
9:53 AM 48.9 °F - 33.1 °F 54% 30.23 in 10.0 mi South 15.0 mph - N/A   Clear
10:53 AM 53.1 °F - 32.0 °F 45% 30.22 in 10.0 mi SSW 12.7 mph - N/A   Clear
11:53 AM 55.9 °F - 30.9 °F 39% 30.21 in 10.0 mi SSW 11.5 mph - N/A   Clear
12:53 PM 57.0 °F - 30.0 °F 36% 30.18 in 10.0 mi SSW 16.1 mph 19.6 mph N/A   Clear
1:53 PM 57.0 °F - 28.0 °F 33% 30.15 in 10.0 mi SW 8.1 mph 18.4 mph N/A   Clear
2:53 PM 57.0 °F - 28.9 °F 34% 30.13 in 10.0 mi South 11.5 mph 19.6 mph N/A   Partly Cloudy
3:53 PM 57.9 °F - 28.9 °F 33% 30.11 in 10.0 mi SSW 18.4 mph 21.9 mph N/A   Partly Cloudy
4:53 PM 57.0 °F - 30.9 °F 37% 30.10 in 10.0 mi SSW 11.5 mph - N/A   Clear
5:53 PM 54.0 °F - 32.0 °F 43% 30.10 in 10.0 mi SSW 11.5 mph - N/A   Clear
6:53 PM 44.1 °F 40.1 °F 32.0 °F 63% 30.10 in 10.0 mi South 6.9 mph - N/A   Clear
7:53 PM 43.0 °F 38.8 °F 34.0 °F 71% 30.11 in 10.0 mi South 6.9 mph - N/A   Clear
9:53 PM 43.0 °F 38.2 °F 35.1 °F 74% 30.11 in 10.0 mi South 8.1 mph - N/A   Clear
10:53 PM 43.0 °F 37.7 °F 35.1 °F 74% 30.10 in 10.0 mi South 9.2 mph - N/A   Clear
11:53 PM 43.0 °F 38.2 °F 35.1 °F 74% 30.09 in 10.0 mi South 8.1 mph - N/A   Clear